FW2916 Weather Reports


Display with metric or nautical units.
time (UTC)temp
F
wind
direction
speed
MPH
gust
MPH
rain 1hr
in
rain 24hr
in
rain mn
in
humidity
%
barometer
mb
20260901173055 97 244 2.0 8.0 0.00 0.00 0.00 45 1016.3
20260901171550 96 243 2.0 8.0 0.00 0.00 0.00 49 1016.4
20260901170043 96 246 2.0 7.0 0.00 0.00 0.00 49 1016.6
20260901164551 95 184 1.0 7.0 0.00 0.00 0.00 49 1016.8
20260901163052 94 135 2.0 7.0 0.00 0.00 0.00 49 1016.8
20260901161551 94 243 2.0 6.0 0.00 0.00 0.00 50 1016.8
20260901160043 92 191 1.0 6.0 0.00 0.00 0.00 53 1017.0
20260901154541 91 224 2.0 7.0 0.00 0.00 0.00 52 1017.0
20260901153101 90 0 0.0 5.0 0.00 0.00 0.00 55 1016.9
20260901151547 89 266 1.0 6.0 0.00 0.00 0.00 57 1017.0
20260901150041 88 0 1.0 6.0 0.00 0.00 0.00 59 1017.1
20260901144554 87 106 1.0 5.0 0.00 0.00 0.00 62 1017.1
20260901143052 85 235 0.0 5.0 0.00 0.00 0.00 63 1017.2
20260901141548 84 198 2.0 6.0 0.00 0.00 0.00 63 1017.3
20260901140055 83 203 0.0 4.0 0.00 0.00 0.00 67 1017.3
20260901134554 82 0 0.0 3.0 0.00 0.00 0.00 69 1017.3
20260901133052 80 0 0.0 1.0 0.00 0.00 0.00 71 1017.2
20260901131545 78 0 0.0 0.0 0.00 0.00 0.00 74 1017.2
20260901130042 75 0 0.0 1.0 0.00 0.00 0.00 77 1017.1
20260901124552 75 0 0.0 0.0 0.00 0.00 0.00 77 1017.0
20260901123051 74 0 0.0 0.0 0.00 0.00 0.00 76 1016.8
20260901121542 74 0 0.0 0.0 0.00 0.00 0.00 76 1016.8
20260901120040 74 0 0.0 3.0 0.00 0.00 0.00 75 1016.6
20260901114551 75 0 0.0 2.0 0.00 0.00 0.00 74 1016.3
20260901113045 76 0 0.0 3.0 0.00 0.00 0.00 73 1016.3
20260901111542 76 227 0.0 2.0 0.00 0.00 0.00 72 1016.2
20260901110053 77 200 1.0 4.0 0.00 0.00 0.00 71 1016.1
20260901104547 77 217 0.0 4.0 0.00 0.00 0.00 70 1015.9
20260901103042 77 148 1.0 4.0 0.00 0.00 0.00 70 1015.9
20260901101609 77 148 0.0 4.0 0.00 0.00 0.00 71 1015.7
20260901100053 76 188 0.0 4.0 0.00 0.00 0.00 71 1015.7
20260901094556 75 0 0.0 1.0 0.00 0.00 0.00 74 1015.6
20260901093048 73 0 0.0 0.0 0.00 0.00 0.00 77 1015.4
20260901091601 74 0 0.0 1.0 0.00 0.00 0.00 76 1015.3
20260901090051 74 0 0.0 1.0 0.00 0.00 0.00 76 1015.2
20260901084553 74 0 0.0 2.0 0.00 0.00 0.00 77 1015.0
20260901083041 72 0 0.0 2.0 0.00 0.00 0.00 81 1015.1
20260901081548 70 0 0.0 0.0 0.00 0.00 0.00 86 1015.0
20260901080100 70 0 0.0 0.0 0.00 0.00 0.00 84 1014.9
20260901074554 70 0 0.0 0.0 0.00 0.00 0.00 84 1014.9
20260901073046 71 0 0.0 0.0 0.00 0.00 0.00 83 1015.1
20260901071541 71 0 0.0 0.0 0.00 0.00 0.00 82 1015.1
20260901070104 71 0 0.0 0.0 0.00 0.00 0.00 79 1015.2
20260901064547 72 0 0.0 0.0 0.00 0.00 0.00 78 1015.1
20260901063043 72 0 0.0 0.0 0.00 0.00 0.00 78 1015.2
20260901061542 72 0 0.0 0.0 0.00 0.00 0.00 77 1015.2
20260901060043 73 0 0.0 0.0 0.00 0.00 0.00 76 1015.3
20260901054548 73 0 0.0 0.0 0.00 0.00 0.00 75 1015.2
20260901053105 74 0 0.0 0.0 0.00 0.00 0.00 73 1015.1
20260901051557 76 0 0.0 0.0 0.00 0.00 0.00 71 1015.1
20260901050047 76 0 0.0 0.0 0.00 0.00 0.00 68 1015.0
20260901044541 77 0 0.0 0.0 0.00 0.00 0.00 66 1015.0
20260901043043 78 0 0.0 0.0 0.00 0.00 0.00 64 1014.9
20260901041553 79 0 0.0 0.0 0.00 0.00 0.00 63 1014.9
20260901040050 80 0 0.0 0.0 0.00 0.00 0.00 64 1014.9
20260901034545 80 0 0.0 0.0 0.00 0.00 0.00 64 1014.9
20260901033040 81 0 0.0 0.0 0.00 0.00 0.00 63 1014.8
20260901031557 82 0 0.0 2.0 0.00 0.00 0.00 63 1014.6
20260901030046 81 6 0.0 1.0 0.00 0.00 0.00 65 1014.6
20260901024545 81 0 0.0 0.0 0.00 0.00 0.00 68 1014.6
20260901023043 81 0 0.0 0.0 0.00 0.00 0.00 70 1014.5
20260901021551 82 0 0.0 0.0 0.00 0.00 0.00 70 1014.3
20260901020050 82 0 0.0 0.0 0.00 0.00 0.00 70 1014.2
20260901014548 84 0 0.0 0.0 0.00 0.00 0.00 67 1014.1
20260901013041 85 0 0.0 0.0 0.00 0.00 0.00 65 1013.8
20260901011541 86 0 0.0 0.0 0.00 0.00 0.00 64 1013.8
20260901010052 88 0 0.0 0.0 0.00 0.00 0.00 61 1013.7
20260901004548 89 0 0.0 0.0 0.00 0.00 0.00 57 1013.5
20260901003044 90 0 0.0 1.0 0.00 0.00 0.00 56 1013.5
20260901001550 92 0 0.0 1.0 0.00 0.00 0.00 54 1013.4
20260901000054 94 0 0.0 1.0 0.00 0.00 0.00 48 1013.5
20260831234604 96 161 0.0 1.0 0.00 0.00 0.00 45 1013.5
20260831233048 98 213 0.0 2.0 0.00 0.00 0.00 43 1013.5
20260831231554 98 223 1.0 3.0 0.00 0.00 0.00 41 1013.5
20260831230048 99 119 0.0 8.0 0.00 0.00 0.00 41 1013.5
20260831224547 101 214 0.0 6.0 0.00 0.00 0.00 41 1013.4
20260831223042 101 253 1.0 7.0 0.00 0.00 0.00 40 1013.4
20260831221542 102 0 2.0 7.0 0.00 0.00 0.00 38 1013.4
20260831220051 102 189 2.0 6.0 0.00 0.00 0.00 38 1013.5
20260831214546 102 204 2.0 6.0 0.00 0.00 0.00 38 1013.5
20260831213041 101 217 2.0 11.0 0.00 0.00 0.00 39 1013.6
20260831211551 102 330 2.0 10.0 0.00 0.00 0.00 39 1013.6
20260831210046 102 193 2.0 8.0 0.00 0.00 0.00 40 1013.6
20260831204541 101 82 2.0 8.0 0.00 0.00 0.00 40 1013.7
20260831203040 101 184 2.0 9.0 0.00 0.00 0.00 41 1013.9
20260831201547 101 145 2.0 8.0 0.00 0.00 0.00 41 1013.9
20260831200052 101 203 3.0 11.0 0.00 0.00 0.00 41 1013.9
20260831194547 101 110 3.0 9.0 0.00 0.00 0.00 42 1013.9
20260831193042 100 238 4.0 9.0 0.00 0.00 0.00 42 1014.0
20260831191542 100 196 2.0 11.0 0.00 0.00 0.00 46 1014.2
20260831190052 99 225 2.0 14.0 0.00 0.00 0.00 45 1014.3
20260831184546 99 160 3.0 8.0 0.00 0.00 0.00 47 1014.4
20260831183053 98 245 1.0 6.0 0.00 0.00 0.00 48 1014.5
20260831181548 97 193 2.0 7.0 0.00 0.00 0.00 48 1014.7
20260831180053 97 294 1.0 6.0 0.00 0.00 0.00 50 1014.9
20260831174547 96 236 3.0 11.0 0.00 0.00 0.00 51 1014.9